METEOR 2-11 DEB, 40706

Orbit data source: Space-Track

METEOR 2-11 DEB, 40706 is space debris in LEO originally from a launch on Thu, 05 Jul 1984 UTC launched from the Plesetsk Missile And Space Complex (PKMTR). Debris objects in space refer to the collection of defunct objects orbiting the Earth. Examples of debris include non-operational satellites, rocket bodies, and fragments generated from explosions, collisions, or faulty payload assembly.

Loading next visibility...
Identifier
40706, 1984-072H
Orbit
LEO
Last TLE update
2 days ago
Origin
Manufacturer
Unknown
Mission
Spacecraft
Bus & Motor
Unknown
Mass
Unknown
Launch date (UTC)
1984-07-05 (41 years ago)
Launch vehicle
Unknown
Launch site
Plesetsk Missile And Space Complex (PKMTR)
Object type
Payload
Rocket body
Debris
Shape & HBR
Unknown
Radar Cross Section
Small (<0.1 m²)

Expand to show TLE details & history

TLE from 2 days ago
0 METEOR 2-11 DEB
1 40706U 84072H   25182.02702608  .00001722  00000-0  12345-2 0  9990
2 40706  82.5189 294.5420 0016279 243.4251 116.5248 13.96494825540168
Epoch: 2025-07-01T00:38Z
TLE epoch observation values (Epoch: 2025-07-01T00:38:55.053Z)
Latitude
-0.00002°
Longitude
5.48423°
Altitude
914.189 km
Speed
7.392 km/s
True Right ascension
19h 38m 10s
True Declination
0° 00' 00"
Sunlit
Object was in full shadow at epoch
Visualization orbit readout
Latitude
-56.08348°
Longitude
-7.39994°
Altitude
922.813 km
Speed
7.392 km/s
Apparent Right ascension
22h 51m 50s
Apparent Declination
-62° 18' 41"
Sunlit
Object is in full shadow
Visualization observer readout
Local Sidereal Time
13:59:41
Azimuth
144.473° SSE
Elevation
-54.234°
Doppler factor
1
Orbital elements
Apogee altitude
914.947 km
Perigee altitude
891.241 km
Semi-major axis
7,281.231 km
Eccentricity
0.00163
Inclination
82.5189°
RAAN
294.542°
Arg. of periapsis
243.4251°
True anomaly
Unknown
Mean anomaly
116.5248°
Eccentric anomaly
Unknown
Mean motion
3.4933 °/min
Orbital period
103.05 mins
BSTAR
0.0012345
Loading maneuver chart data...
Loading SW <> Apogee altitude chart data...
Loading historical data...
Loading historical data...
Loading historical data...
Loading historical data...
Loading historical data...
Loading historical data...
Loading historical data...

METEOR 2-11 DEB Visibility forecast

Observer location: undefined°, undefined°

Span
Click to sort rows by Start time (UTC) header in descending order
Start Az.
Max El. time (UTC)
Max El. Az.
Max El.
End time (UTC)
End Az.
11 mins2025-07-03 07:46:42.281Z172.679° S2025-07-03 07:51:42.281Z107.458° ESE41.863°2025-07-03 07:57:42.281Z14.115° NNE
6 mins2025-07-03 09:33:42.281Z260.628° W2025-07-03 09:36:42.281Z295.442° NW16.833°2025-07-03 09:39:42.281Z328.07° NNW
10 mins2025-07-03 18:34:42.281Z9.732° NNE2025-07-03 18:39:42.281Z89.499° E34.497°2025-07-03 18:44:42.281Z148.454° SSE
7 mins2025-07-03 20:19:42.281Z315.01° NNW2025-07-03 20:22:42.281Z276.713° WNW22.267°2025-07-03 20:26:42.281Z227.65° WSW
|